Wind_Speed
26 26 25 23 22 23 24 24 24 24 27 28 27 24 20 17 14 10 7 7 6 7 7 8 9 7 7 7 8 9 9 9 10 9 6 6 7 7 9 10 12 12 12 12 12 12 12 12 11 11 12 13 14 16 17 17 17 16 16 17 17 17 17
27 27 25 24 23 24 24 24 24 25 28 29 27 24 20 18 15 10 8 8 7 8 8 8 8 8 8 9 8 8 9 9 8 7 6 6 6 7 9 11 11 11 10 11 12 12 11 11 10 10 11 12 13 15 16 17 17 16 14 14 15 15 14
26 27 26 25 24 25 25 25 26 27 28 27 25 23 21 18 14 10 9 8 8 9 9 8 8 9 10 10 8 7 10 10 8 6 5 5 6 7 9 10 10 10 10 10 10 10 11 10 10 10 11 12 13 14 15 17 17 15 14 14 14 14 14
23 25 26 25 25 26 25 26 28 28 27 26 24 23 22 18 13 11 10 10 10 10 9 8 8 9 10 10 9 8 10 11 9 6 5 5 6 7 9 9 10 10 9 9 10 10 10 10 10 10 11 12 13 14 16 17 17 16 15 14 15 14 16
21 24 25 24 25 26 26 28 31 29 26 25 24 23 21 17 13 12 12 11 11 10 9 8 8 11 11 11 10 10 11 11 9 7 6 6 6 7 8 9 10 10 10 9 10 10 10 10 10 11 11 13 14 15 16 17 16 16 15 15 16 16 16
21 24 25 25 26 26 27 30 31 28 26 24 24 23 21 17 15 13 12 12 13 12 11 10 10 12 11 10 11 12 12 10 8 7 6 6 6 6 8 9 10 11 11 11 10 11 11 12 11 12 12 13 14 15 15 16 16 16 15 15 16 16 17
21 24 26 26 27 27 28 29 28 26 25 24 23 23 20 17 15 14 12 12 13 12 11 9 10 10 10 10 12 12 11 9 7 7 6 6 7 7 8 9 11 12 12 12 12 12 12 12 12 12 13 14 14 14 16 17 16 16 16 15 16 17 19
21 24 26 28 27 27 28 28 27 26 25 24 24 23 20 17 15 14 13 12 11 10 9 8 9 10 11 11 12 12 10 8 7 7 7 7 7 8 9 9 11 13 14 13 14 14 13 13 13 13 14 15 15 16 17 19 18 16 16 16 17 18 18
21 23 26 29 28 27 27 28 27 26 25 26 25 23 20 18 15 14 13 12 11 10 9 9 9 10 11 12 12 11 10 8 8 8 8 8 8 8 8 9 10 13 15 15 15 15 15 14 14 15 15 16 17 17 18 19 18 17 16 17 19 19 19
20 22 24 27 27 26 26 28 28 28 29 29 27 24 21 18 16 15 14 13 12 11 10 10 10 10 11 12 12 10 9 8 8 8 8 8 8 8 8 9 10 11 14 16 16 16 16 15 15 16 16 17 17 18 18 17 18 18 17 17 19 20 22
20 21 22 25 26 26 27 29 32 35 34 31 28 25 23 20 17 17 16 14 12 11 10 11 11 10 10 11 10 10 9 9 8 8 9 8 8 8 9 10 11 12 13 15 17 17 17 17 17 17 17 17 17 18 18 17 18 20 19 19 20 22 23
19 21 23 26 28 28 29 32 37 39 35 31 28 26 24 20 18 17 17 15 14 12 11 12 11 11 11 10 10 10 10 9 9 9 9 9 9 9 10 11 12 12 13 14 16 17 17 18 19 19 17 17 18 18 18 19 20 21 21 21 22 22 23
16 18 20 23 26 27 28 32 37 38 34 31 28 26 23 21 19 18 17 17 15 14 13 14 13 13 12 11 10 11 10 9 9 9 9 9 10 10 11 13 13 13 14 15 16 17 17 17 19 20 18 17 17 18 19 20 21 22 22 22 21 21 22
16 17 18 21 24 27 29 32 35 36 34 30 28 27 24 21 19 18 18 18 16 15 15 14 14 13 12 11 11 11 11 10 10 10 9 10 10 11 13 14 15 16 16 16 17 18 18 18 18 19 19 18 17 18 19 19 18 20 21 21 21 20 22
16 17 19 21 24 27 29 32 34 35 33 31 29 27 24 21 20 19 19 18 17 16 15 15 15 14 12 12 11 11 12 11 10 10 10 10 10 12 14 16 17 16 15 16 17 18 18 18 18 18 18 18 17 16 17 16 16 18 20 20 20 20 22
17 18 20 22 25 26 28 31 34 35 33 31 29 28 24 22 21 20 19 17 17 17 16 15 15 14 13 12 11 12 12 12 11 11 11 11 12 13 15 17 17 15 15 17 17 17 18 17 17 16 16 17 16 15 15 14 16 18 20 19 19 19 21
17 19 21 23 24 26 27 30 34 35 33 32 30 28 24 22 21 20 18 16 15 15 16 15 15 14 14 13 12 13 13 12 12 12 12 13 14 15 16 18 17 15 16 18 17 16 16 16 15 15 15 15 14 13 13 14 16 19 19 19 19 19 20
17 19 21 23 24 26 27 30 34 36 34 33 31 28 25 23 21 19 18 16 15 14 14 15 15 15 14 13 12 13 13 13 13 13 14 14 15 16 17 18 17 16 17 17 16 15 14 14 14 14 14 13 12 12 12 13 16 19 19 19 19 19 20
16 17 19 22 24 26 29 30 34 37 35 33 31 27 24 22 21 20 19 17 15 15 15 15 15 14 14 13 13 13 13 13 13 14 15 15 16 16 17 18 16 16 17 15 14 15 14 14 14 14 13 13 12 13 12 12 15 18 18 18 18 18 19
14 14 17 20 23 26 28 29 33 36 35 33 29 25 22 21 21 21 19 16 15 16 16 16 15 15 14 13 13 13 13 13 13 15 15 16 16 16 17 17 15 15 15 13 13 15 15 14 14 14 13 12 12 13 13 13 15 16 17 17 18 18 20
12 13 15 18 21 23 24 27 33 36 34 31 26 23 22 21 21 21 19 17 17 17 17 16 15 15 15 14 13 13 13 13 14 15 15 15 15 15 15 15 14 14 14 13 13 14 14 15 15 14 14 13 13 14 13 13 15 17 17 18 18 18 20
9 11 14 16 18 21 24 30 35 36 34 30 25 23 23 21 21 20 19 18 19 18 17 16 15 15 15 14 13 13 12 13 13 14 15 15 15 15 14 14 13 13 14 14 14 14 14 15 14 14 15 14 14 15 14 13 16 18 18 19 19 19 20
7 9 11 13 16 20 25 32 36 34 32 28 24 23 23 21 21 21 20 20 19 19 18 16 16 16 15 14 13 12 12 13 13 14 15 15 14 14 14 13 13 13 13 13 14 15 14 14 15 15 15 16 17 17 16 14 16 19 20 20 19 19 19
7 7 10 13 16 19 25 32 35 32 29 26 22 20 20 21 22 23 22 22 20 19 18 17 17 16 14 13 13 12 12 12 13 14 14 13 14 14 13 13 12 13 14 15 16 15 13 14 17 18 17 17 19 19 19 19 17 17 19 19 19 19 19
8 8 11 14 16 20 26 31 32 29 27 25 23 19 18 22 24 24 23 23 21 19 19 19 18 16 14 14 13 12 12 12 13 13 13 13 13 13 13 14 14 13 14 15 15 14 14 15 18 19 19 20 22 21 22 21 17 15 17 19 18 18 19
11 11 14 15 17 22 26 29 30 28 25 24 22 21 22 24 26 26 25 24 22 21 21 21 18 15 15 14 13 12 12 12 13 13 12 12 12 13 15 17 17 16 15 16 16 16 17 18 18 18 19 21 23 23 22 20 16 15 17 18 17 16 17
14 16 17 18 20 22 25 28 28 25 23 21 19 21 24 26 28 29 28 25 24 23 22 20 17 16 15 15 14 13 13 13 12 12 12 13 14 16 18 18 17 17 17 19 20 20 19 19 18 18 18 18 20 21 21 20 17 15 16 16 16 15 15
18 18 18 19 21 23 27 29 26 23 22 21 20 22 24 25 27 29 29 27 27 25 21 18 17 16 16 16 16 16 16 15 13 12 14 16 15 16 19 19 18 17 18 19 20 21 20 20 19 18 17 16 17 18 20 20 17 13 13 14 15 15 15
20 20 20 21 24 26 27 27 26 23 21 19 21 25 24 21 22 27 29 28 29 26 22 19 20 19 18 18 18 17 17 17 14 13 15 16 15 15 17 18 18 17 17 19 20 21 22 21 20 18 17 17 17 17 20 19 15 11 11 13 14 15 16
20 20 20 19 21 24 26 24 24 24 22 20 21 25 23 19 20 24 27 28 28 27 24 22 23 22 19 19 19 18 18 15 13 14 16 15 15 16 16 18 18 17 17 18 18 20 22 22 19 17 17 19 19 18 18 18 14 14 14 12 13 15 16
20 19 18 16 17 21 23 23 21 22 23 24 23 23 22 20 21 23 24 24 25 26 25 24 23 22 20 20 19 17 15 13 13 15 16 15 15 16 16 16 16 15 16 16 16 18 20 19 17 17 18 20 20 18 17 16 14 15 15 12 12 14 15
20 18 16 15 16 17 18 19 19 20 22 24 24 23 21 20 21 23 22 22 23 25 25 23 21 21 21 19 16 13 13 12 10 11 13 15 15 15 14 14 12 12 13 14 14 15 15 14 14 15 17 19 20 18 17 16 14 14 15 14 14 14 15
17 15 14 14 13 13 14 15 16 16 17 18 18 18 18 19 20 20 19 19 20 21 22 20 19 19 19 16 13 11 14 15 12 10 11 13 13 13 12 12 11 11 13 14 14 13 13 12 12 13 14 17 19 18 16 15 14 15 16 15 14 14 14
14 13 12 11 10 9 9 10 10 10 10 11 13 16 17 17 15 13 14 14 13 14 16 17 16 14 11 9 8 9 14 18 16 14 14 14 16 17 15 12 14 14 15 15 15 14 14 12 11 11 13 15 16 16 14 13 14 16 18 17 15 15 14
11 10 9 9 8 7 7 8 8 9 10 12 14 15 15 13 10 9 10 11 11 13 13 14 14 11 7 7 9 11 14 15 13 12 15 17 18 19 17 16 19 19 18 19 20 19 17 14 12 14 15 14 14 15 15 16 17 18 18 17 17 16 14
10 9 8 7 7 7 8 9 11 12 13 14 14 14 13 13 12 10 9 10 13 14 13 12 13 11 8 8 9 10 11 11 10 13 16 17 14 12 14 17 19 18 19 21 21 19 17 15 15 17 17 14 14 16 17 17 17 17 17 16 16 15 14
10 10 8 8 8 9 10 11 12 13 13 13 13 13 13 13 13 10 9 11 15 14 12 13 14 12 9 8 10 10 12 13 12 13 14 14 11 10 11 14 17 18 19 20 19 17 16 16 16 16 15 12 12 15 15 14 15 16 16 15 14 13 12
10 8 8 9 9 10 11 12 12 11 10 10 10 10 10 9 9 9 8 11 13 12 12 14 13 10 8 9 10 12 14 14 12 11 11 9 10 11 10 12 16 18 18 18 18 17 16 15 14 14 13 12 12 14 13 13 13 14 14 13 12 11 11
Wind_Direction
198 197 197 194 192 192 193 194 191 190 195 198 198 198 200 208 216 222 232 250 269 269 280 302 307 307 307 307 315 322 326 323 321 322 318 312 312 311 319 324 324 324 322 322 320 315 312 312 313 318 322 326 328 329 330 329 324 319 315 311 307 301 297
200 196 194 192 191 190 190 191 189 189 195 198 198 197 199 208 217 220 233 253 263 268 288 307 307 305 307 310 315 319 322 321 318 320 318 313 314 317 327 329 326 323 320 320 321 317 313 310 308 309 313 320 327 331 335 335 332 326 320 317 314 310 308
203 197 192 190 188 188 188 190 191 192 194 196 195 194 199 208 214 217 229 245 256 268 290 305 303 304 306 310 312 311 317 320 317 312 304 302 310 321 333 335 332 327 321 320 323 323 320 314 310 308 309 317 324 329 335 337 334 330 325 323 320 316 315
203 197 190 187 186 186 187 190 194 194 193 194 192 193 201 208 209 211 221 237 252 266 283 293 296 300 301 305 308 308 313 317 316 309 292 290 304 321 336 341 340 334 325 323 325 328 327 320 314 311 311 316 319 323 331 332 331 328 326 324 322 321 320
198 193 187 184 185 187 188 191 196 195 191 191 190 193 201 204 203 206 218 237 251 260 273 281 286 293 299 303 306 312 315 314 314 308 288 284 300 320 333 338 342 341 335 332 329 330 331 326 319 315 312 313 314 319 327 329 327 324 321 321 320 323 324
192 189 186 185 186 187 189 192 196 194 190 188 189 193 197 197 197 200 214 238 251 258 272 282 284 289 295 298 305 315 317 313 313 308 290 284 296 311 321 327 333 337 337 336 331 328 328 327 322 316 310 307 308 314 321 323 322 319 317 317 314 317 324
191 188 188 188 189 190 190 191 192 192 190 188 188 193 194 192 196 198 208 232 248 257 270 277 275 280 288 294 304 313 312 304 301 296 285 281 290 300 309 317 323 325 328 329 326 325 325 323 321 316 310 304 301 305 310 314 318 316 313 311 307 310 317
191 189 190 191 193 192 189 188 190 191 191 188 187 191 192 192 195 199 206 222 236 244 256 260 257 268 284 296 304 308 304 296 290 285 278 278 286 295 303 309 312 314 319 322 321 320 319 318 318 316 312 307 302 299 301 306 312 311 307 305 303 307 312
191 191 192 194 195 193 189 188 188 189 188 187 188 189 189 192 195 200 208 220 230 238 248 253 250 258 279 296 304 303 297 292 289 281 275 277 283 289 297 304 308 310 315 318 317 315 314 313 314 314 312 309 305 301 300 303 308 309 307 307 307 310 312
191 192 193 194 195 192 189 185 184 187 190 192 195 191 191 198 202 205 212 220 229 240 246 249 250 253 270 291 299 295 287 285 282 275 270 273 280 287 296 307 310 308 310 312 312 310 309 308 308 309 310 307 305 304 302 301 302 305 308 310 311 314 315
190 189 189 190 190 187 185 184 190 197 199 198 199 196 198 207 212 215 222 225 229 238 243 245 251 253 263 281 284 277 276 276 268 267 268 270 277 285 294 303 308 311 313 313 313 310 307 304 303 304 305 304 304 305 304 301 300 303 307 309 312 316 319
191 189 188 186 185 184 183 188 199 204 201 198 199 199 201 209 215 219 228 231 230 235 240 245 250 252 261 272 270 266 270 268 262 265 269 271 278 285 293 300 307 312 313 312 311 308 304 300 298 298 297 297 300 303 303 302 301 302 304 307 310 317 321
195 193 191 186 185 185 184 192 203 204 199 196 199 200 203 210 215 219 228 233 233 237 244 250 252 255 264 269 265 265 269 266 263 265 270 275 279 284 292 297 301 305 308 308 307 304 302 299 296 295 294 291 294 299 301 300 300 303 306 307 309 316 322
200 198 195 189 189 189 190 197 203 201 197 196 198 200 203 210 215 220 228 231 234 240 247 252 252 256 265 269 269 274 274 268 265 268 273 278 281 288 292 294 299 306 310 309 307 304 302 300 296 293 291 288 289 295 299 297 294 299 306 306 308 315 323
204 200 195 193 194 194 195 201 201 197 195 196 198 200 203 208 214 220 225 229 236 243 246 250 253 257 261 262 271 281 279 271 268 271 276 278 283 291 293 297 304 309 310 308 305 303 302 301 298 294 291 290 290 292 296 293 289 298 306 304 305 313 322
209 203 199 198 197 195 197 203 202 197 195 196 199 200 202 208 215 218 220 227 237 246 249 250 253 258 259 257 267 280 278 272 270 272 276 279 284 291 295 304 311 309 307 309 306 302 302 303 302 298 293 294 294 294 294 291 292 303 308 303 303 312 320
215 209 205 201 198 195 196 202 202 197 194 196 200 201 203 209 214 215 218 223 231 241 249 249 250 257 258 256 266 277 275 270 268 271 277 282 287 291 297 308 313 307 307 311 307 302 304 306 305 302 297 297 299 299 296 293 299 308 309 303 304 313 321
226 217 208 202 197 194 194 198 199 195 194 197 200 200 203 208 211 212 216 221 227 235 239 240 246 255 257 255 265 277 275 269 267 270 277 284 288 290 298 308 311 308 310 312 306 304 306 305 305 303 301 301 301 300 300 298 304 310 307 303 307 315 322
234 223 212 204 197 194 195 195 195 194 194 197 199 199 201 205 209 213 216 222 231 234 231 233 242 250 251 254 265 274 275 271 270 272 277 284 287 289 297 305 309 311 314 312 305 304 305 304 306 304 302 303 302 303 303 299 304 312 310 307 311 317 321
237 226 215 207 199 197 196 191 189 192 195 196 195 194 198 203 211 217 217 221 228 230 230 236 242 244 245 252 263 270 273 273 274 276 280 284 286 289 294 302 307 311 314 313 307 307 306 305 307 305 301 302 301 302 307 305 307 318 318 314 315 316 316
234 224 213 207 203 199 193 186 186 191 193 191 188 190 198 207 215 217 216 219 223 225 232 240 240 238 241 248 258 266 272 275 277 281 283 284 285 286 291 299 305 308 311 313 311 309 308 306 306 303 299 298 297 299 305 308 312 324 327 320 316 314 314
230 219 212 208 201 194 190 188 189 190 190 187 186 191 202 212 217 216 216 219 221 224 230 236 236 235 239 246 256 265 271 275 280 283 283 285 285 283 287 295 301 303 306 310 312 313 312 309 308 306 300 297 297 297 298 302 309 321 329 326 319 315 314
214 208 206 200 194 193 194 193 192 190 186 183 189 201 211 217 216 214 217 219 220 224 228 230 232 234 237 245 256 265 270 274 280 282 284 286 283 280 285 291 296 301 304 308 311 311 309 310 312 309 301 297 298 296 294 299 305 311 320 326 323 318 316
186 190 186 183 186 192 197 196 192 187 182 186 200 212 217 220 216 214 218 220 221 226 227 226 231 233 238 248 257 264 269 271 277 283 285 284 280 281 286 287 292 301 302 303 308 309 307 312 316 316 312 309 306 299 294 296 297 300 311 322 324 321 320
160 168 171 175 182 187 192 194 189 183 183 197 213 217 217 219 215 214 220 222 223 228 228 227 229 230 237 250 257 262 268 270 276 282 282 281 280 281 280 278 284 295 295 295 301 302 298 302 309 314 317 317 315 309 299 295 293 296 307 317 321 321 322
161 165 163 169 179 183 186 186 183 185 195 207 214 216 220 222 218 218 224 224 224 228 227 226 226 228 238 251 255 259 267 271 277 282 282 281 281 277 274 277 285 291 288 285 289 290 291 296 301 305 310 315 318 314 305 298 296 297 304 312 317 319 320
165 163 161 169 178 180 181 182 185 196 208 210 209 214 222 225 223 224 227 226 225 227 226 226 229 235 242 247 250 259 270 275 277 279 277 277 276 274 277 283 289 291 290 288 288 287 292 300 302 302 308 315 318 315 309 303 298 295 300 309 314 313 314
161 158 163 172 175 176 179 185 195 208 213 211 213 218 224 229 230 230 229 229 230 229 227 230 235 238 241 243 250 264 277 283 283 277 275 281 284 281 283 288 290 292 291 289 288 288 292 300 301 303 313 318 315 316 315 306 297 295 302 309 310 308 308
159 159 167 174 177 179 184 194 205 212 214 215 219 222 228 238 242 236 232 235 237 234 232 237 239 239 241 244 252 265 277 284 287 279 276 283 289 288 289 292 295 294 289 284 284 287 291 297 298 301 310 313 310 316 317 308 300 304 308 301 299 303 304
163 169 175 178 184 188 194 203 210 214 218 220 223 229 238 251 255 246 241 243 243 239 241 246 242 239 243 247 254 268 277 279 281 279 276 280 286 290 294 296 296 295 289 285 285 287 291 295 297 299 304 309 311 316 319 315 315 322 319 302 292 297 298
172 178 179 182 192 198 203 210 216 221 225 226 230 241 249 255 257 255 253 252 247 245 249 248 242 241 247 252 258 269 275 273 273 275 274 277 286 293 297 298 295 290 287 286 286 289 293 296 297 297 300 307 314 319 322 322 323 326 329 325 310 301 295
180 184 185 190 199 206 211 215 220 227 233 236 242 251 255 257 262 263 261 258 255 253 252 247 244 246 249 254 262 268 267 265 269 276 281 287 296 299 295 292 284 272 273 280 283 286 289 291 294 296 298 307 317 321 322 323 322 323 329 331 325 314 303
186 189 191 195 200 205 211 218 225 233 242 248 254 261 265 269 274 274 266 257 254 252 248 245 247 246 247 254 263 261 260 264 269 280 290 296 300 299 289 280 269 260 266 276 279 280 282 283 289 295 299 308 316 318 319 323 322 321 323 323 321 320 311
182 184 187 190 194 200 209 221 232 242 252 261 265 269 271 272 275 273 260 248 239 236 238 239 237 235 241 251 251 255 269 276 280 288 294 295 297 299 292 271 259 261 266 268 270 274 279 283 288 291 296 306 312 312 315 320 317 318 321 320 318 320 317
173 180 188 194 203 213 221 230 241 250 258 264 268 271 273 274 271 261 250 239 221 213 219 227 230 236 250 253 255 269 280 283 283 286 291 295 298 299 294 280 271 270 267 264 266 271 274 276 280 286 292 300 305 307 311 314 315 318 323 320 317 318 319
188 197 202 208 216 226 235 244 249 253 258 264 269 272 274 274 271 262 249 234 221 217 222 236 249 263 266 255 261 270 271 276 281 283 291 302 302 291 288 288 286 278 264 260 266 271 272 273 278 283 289 293 299 306 313 317 318 320 323 322 320 319 321
204 207 211 219 230 238 245 248 249 250 252 256 260 262 264 266 267 263 249 237 233 234 242 255 268 278 269 251 253 255 259 274 284 285 293 306 307 296 289 287 286 280 266 260 265 267 267 270 275 281 287 293 301 310 316 319 319 319 323 327 327 324 326
208 210 216 227 236 242 243 242 242 244 247 250 256 261 262 262 263 263 255 249 250 254 261 269 277 280 264 248 249 259 272 285 290 290 294 297 296 299 293 278 280 283 272 263 264 264 264 268 273 279 288 299 306 312 316 317 318 321 324 328 330 330 332
Height
1524 1527 1531 1533 1535 1538 1541 1544 1546 1548 1550 1552 1555 1557 1559 1560 1561 1562 1563 1563 1564 1564 1564 1564 1563 1563 1563 1562 1561 1560 1559 1559 1558 1557 1557 1556 1556 1555 1554 1553 1552 1551 1550 1549 1548 1547 1546 1545 1544 1543 1542 1541 1540 1539 1537 1536 1535 1534 1533 1532 1530 1529 1529
1520 1524 1527 1530 1532 1535 1539 1541 1544 1546 1548 1550 1553 1555 1557 1558 1559 1560 1561 1562 1562 1563 1563 1562 1562 1561 1561 1560 1560 1559 1558 1557 1556 1556 1555 1555 1555 1554 1553 1552 1551 1550 1549 1548 1547 1546 1545 1544 1543 1542 1541 1540 1539 1537 1536 1534 1533 1532 1531 1530 1529 1528 1527
1517 1520 1523 1527 1529 1532 1536 1538 1541 1543 1545 1548 1551 1553 1555 1556 1558 1559 1560 1561 1561 1561 1561 1561 1560 1560 1559 1558 1558 1557 1556 1556 1555 1555 1554 1554 1553 1553 1552 1551 1550 1549 1548 1546 1546 1544 1544 1543 1541 1541 1540 1539 1537 1536 1535 1533 1532 1531 1529 1528 1527 1526 1525
1514 1517 1521 1524 1526 1530 1533 1535 1538 1541 1543 1546 1549 1551 1553 1554 1556 1557 1558 1559 1560 1560 1559 1559 1559 1558 1558 1557 1556 1556 1555 1554 1554 1553 1553 1552 1552 1551 1550 1549 1548 1547 1546 1545 1544 1543 1542 1541 1540 1539 1538 1537 1536 1535 1533 1532 1531 1530 1528 1527 1526 1525 1524
1512 1515 1519 1522 1524 1528 1530 1532 1536 1538 1541 1545 1547 1549 1551 1553 1554 1556 1557 1557 1558 1558 1558 1558 1557 1556 1556 1555 1554 1554 1553 1552 1552 1551 1551 1550 1550 1550 1549 1548 1547 1546 1545 1544 1543 1542 1541 1540 1539 1538 1537 1536 1535 1534 1532 1531 1530 1528 1527 1526 1525 1523 1522
1509 1512 1515 1518 1521 1525 1527 1530 1534 1537 1540 1543 1545 1547 1549 1551 1553 1554 1555 1556 1556 1557 1556 1556 1556 1555 1554 1553 1552 1552 1551 1550 1550 1549 1549 1549 1548 1548 1547 1546 1545 1544 1544 1542 1541 1540 1539 1538 1538 1537 1536 1535 1534 1533 1531 1530 1529 1527 1525 1524 1523 1522 1521
1506 1509 1512 1515 1518 1521 1524 1528 1532 1535 1538 1541 1543 1545 1547 1550 1551 1553 1554 1554 1554 1555 1554 1554 1554 1553 1553 1552 1551 1550 1549 1548 1548 1547 1547 1547 1547 1546 1546 1545 1544 1543 1542 1541 1540 1539 1538 1537 1537 1536 1535 1534 1533 1532 1530 1529 1527 1526 1524 1523 1522 1521 1520
1503 1506 1509 1512 1516 1519 1522 1526 1530 1533 1536 1539 1541 1543 1546 1548 1549 1551 1552 1552 1553 1554 1553 1554 1553 1552 1551 1550 1550 1549 1548 1547 1547 1546 1546 1546 1546 1545 1545 1544 1543 1542 1541 1540 1539 1538 1537 1536 1535 1535 1534 1533 1532 1531 1529 1527 1526 1524 1523 1521 1520 1519 1518
1501 1504 1506 1509 1513 1517 1520 1523 1527 1531 1533 1535 1538 1541 1543 1545 1547 1548 1550 1551 1552 1552 1552 1552 1552 1551 1550 1549 1548 1547 1547 1546 1545 1545 1545 1545 1545 1544 1544 1544 1543 1541 1539 1538 1537 1536 1535 1535 1534 1533 1532 1531 1530 1529 1528 1526 1524 1523 1521 1520 1518 1517 1516
1500 1502 1504 1507 1511 1515 1518 1521 1524 1527 1529 1532 1535 1538 1541 1542 1544 1546 1547 1549 1550 1550 1550 1550 1550 1549 1548 1547 1547 1546 1546 1545 1544 1544 1544 1544 1544 1543 1543 1543 1542 1541 1539 1537 1536 1534 1534 1533 1532 1531 1530 1529 1528 1527 1526 1525 1523 1521 1519 1518 1517 1515 1513
1498 1501 1502 1505 1509 1511 1514 1517 1520 1522 1525 1529 1532 1535 1538 1540 1542 1543 1545 1547 1548 1548 1548 1548 1548 1548 1547 1546 1546 1545 1545 1544 1544 1543 1543 1543 1542 1542 1542 1541 1540 1539 1537 1535 1534 1533 1532 1531 1530 1529 1528 1527 1526 1525 1524 1523 1521 1520 1518 1517 1515 1513 1511
1497 1498 1500 1503 1505 1508 1510 1513 1515 1518 1522 1526 1530 1533 1535 1537 1539 1541 1543 1545 1546 1546 1546 1546 1546 1546 1545 1545 1545 1544 1544 1543 1543 1543 1542 1542 1541 1540 1540 1539 1538 1537 1536 1535 1533 1532 1531 1529 1528 1527 1526 1525 1524 1523 1522 1521 1519 1518 1516 1515 1513 1511 1509
1496 1497 1499 1501 1502 1505 1508 1509 1511 1515 1519 1524 1527 1530 1533 1535 1537 1539 1541 1542 1543 1544 1543 1543 1544 1544 1544 1544 1544 1543 1543 1542 1542 1541 1541 1540 1539 1539 1538 1537 1536 1535 1534 1533 1531 1530 1529 1528 1526 1525 1523 1523 1522 1521 1520 1518 1517 1515 1514 1512 1511 1509 1507
1494 1496 1497 1499 1500 1502 1504 1506 1509 1513 1517 1521 1525 1528 1531 1533 1535 1537 1539 1540 1541 1541 1541 1541 1541 1541 1542 1542 1542 1542 1541 1541 1541 1540 1539 1538 1537 1537 1536 1534 1533 1532 1531 1531 1529 1528 1527 1525 1524 1523 1521 1520 1519 1519 1518 1516 1515 1513 1511 1510 1508 1507 1505
1492 1493 1494 1496 1497 1499 1501 1504 1507 1510 1515 1519 1522 1526 1528 1531 1533 1534 1536 1538 1538 1539 1539 1539 1539 1539 1540 1540 1540 1540 1539 1539 1539 1538 1537 1536 1535 1535 1533 1532 1531 1530 1529 1529 1527 1526 1524 1523 1522 1520 1519 1518 1516 1516 1515 1514 1513 1511 1509 1508 1506 1505 1503
1488 1490 1492 1492 1494 1496 1499 1501 1504 1508 1513 1516 1520 1523 1526 1528 1530 1532 1534 1535 1536 1536 1537 1537 1537 1537 1537 1538 1538 1538 1537 1537 1537 1536 1535 1534 1533 1532 1531 1530 1529 1528 1527 1526 1525 1524 1522 1521 1520 1518 1517 1516 1514 1513 1513 1511 1510 1508 1507 1506 1504 1502 1501
1485 1486 1488 1489 1491 1493 1496 1499 1502 1505 1510 1514 1517 1521 1523 1526 1528 1531 1532 1533 1534 1535 1534 1535 1535 1535 1535 1536 1536 1536 1535 1535 1535 1534 1533 1532 1531 1530 1529 1528 1527 1526 1525 1524 1522 1521 1520 1519 1518 1516 1515 1514 1512 1511 1510 1509 1508 1506 1505 1503 1501 1500 1499
1483 1483 1484 1486 1488 1490 1493 1496 1499 1502 1507 1511 1515 1518 1521 1524 1527 1529 1530 1531 1532 1533 1533 1533 1532 1533 1533 1533 1534 1534 1533 1533 1532 1531 1531 1530 1529 1528 1526 1525 1525 1524 1523 1521 1520 1519 1518 1517 1516 1514 1513 1512 1510 1509 1508 1507 1505 1504 1503 1501 1499 1498 1496
1480 1481 1482 1484 1485 1487 1489 1492 1496 1500 1504 1508 1513 1516 1519 1523 1524 1526 1527 1528 1529 1530 1531 1531 1530 1531 1531 1531 1532 1531 1531 1531 1530 1529 1528 1527 1526 1525 1524 1523 1522 1521 1520 1519 1518 1517 1516 1515 1514 1512 1511 1510 1508 1507 1506 1505 1503 1502 1501 1499 1497 1496 1494
1478 1479 1480 1482 1483 1485 1488 1490 1494 1498 1502 1507 1511 1515 1518 1521 1522 1523 1525 1526 1527 1528 1528 1528 1528 1528 1528 1529 1529 1529 1528 1528 1527 1526 1526 1525 1524 1523 1522 1521 1520 1519 1518 1517 1516 1515 1514 1513 1512 1510 1509 1507 1506 1505 1503 1502 1501 1499 1498 1497 1495 1493 1491
1476 1476 1478 1480 1481 1484 1487 1489 1492 1496 1501 1506 1510 1513 1516 1518 1519 1521 1522 1523 1524 1525 1525 1525 1525 1526 1526 1527 1527 1526 1526 1525 1525 1524 1523 1522 1522 1521 1519 1519 1518 1517 1516 1515 1514 1513 1512 1510 1509 1508 1506 1505 1504 1502 1501 1500 1498 1497 1496 1494 1493 1491 1489
1473 1475 1477 1478 1481 1483 1485 1488 1491 1495 1499 1504 1508 1512 1514 1515 1517 1519 1520 1521 1521 1522 1522 1522 1523 1523 1524 1524 1524 1524 1524 1523 1522 1522 1521 1520 1520 1519 1518 1517 1516 1515 1514 1513 1512 1511 1510 1509 1507 1506 1505 1503 1502 1501 1499 1497 1495 1494 1493 1491 1490 1488 1487
1472 1474 1475 1477 1480 1482 1484 1487 1491 1494 1499 1503 1507 1509 1511 1513 1514 1516 1517 1518 1519 1519 1519 1520 1520 1520 1521 1522 1522 1521 1521 1520 1520 1519 1519 1518 1517 1516 1516 1515 1514 1514 1513 1511 1510 1509 1508 1507 1506 1504 1503 1501 1500 1499 1497 1496 1494 1492 1490 1489 1488 1486 1485
1472 1473 1474 1476 1479 1481 1484 1487 1491 1495 1499 1502 1505 1507 1508 1510 1512 1513 1514 1515 1515 1517 1517 1517 1517 1518 1518 1519 1519 1519 1518 1518 1517 1517 1516 1515 1515 1514 1514 1513 1513 1512 1511 1510 1509 1508 1506 1505 1504 1503 1501 1500 1499 1497 1495 1494 1492 1490 1488 1487 1485 1484 1482
1471 1472 1474 1476 1478 1480 1483 1486 1491 1495 1498 1500 1503 1504 1506 1507 1508 1510 1510 1511 1512 1514 1514 1514 1515 1515 1516 1516 1516 1516 1516 1515 1515 1514 1513 1513 1512 1511 1511 1510 1510 1510 1509 1508 1507 1505 1504 1502 1501 1500 1499 1498 1497 1496 1494 1492 1489 1488 1486 1484 1483 1482 1481
1471 1472 1473 1476 1478 1480 1483 1487 1491 1494 1497 1499 1500 1502 1503 1504 1505 1506 1507 1508 1509 1510 1510 1511 1511 1512 1512 1513 1513 1513 1513 1512 1512 1511 1511 1510 1509 1509 1508 1507 1507 1507 1506 1505 1504 1503 1501 1500 1498 1497 1495 1495 1494 1493 1492 1490 1487 1485 1484 1483 1482 1480 1479
1471 1472 1474 1477 1478 1481 1484 1488 1491 1493 1495 1496 1498 1499 1500 1501 1502 1503 1504 1505 1506 1506 1507 1508 1508 1509 1509 1510 1510 1510 1510 1509 1509 1509 1508 1507 1506 1505 1504 1504 1504 1504 1503 1502 1501 1500 1499 1498 1496 1494 1492 1491 1491 1490 1489 1488 1486 1484 1482 1481 1480 1479 1477
1472 1473 1476 1478 1479 1482 1485 1487 1489 1492 1493 1495 1496 1497 1498 1499 1500 1501 1501 1502 1502 1503 1504 1505 1506 1506 1506 1506 1507 1507 1507 1506 1506 1506 1506 1504 1503 1502 1501 1501 1501 1501 1500 1500 1498 1497 1496 1495 1493 1492 1490 1489 1488 1487 1486 1485 1483 1481 1480 1479 1478 1477 1476
1472 1474 1476 1478 1480 1482 1484 1486 1488 1490 1492 1494 1495 1495 1496 1497 1498 1498 1499 1499 1500 1501 1502 1502 1503 1503 1503 1503 1504 1504 1504 1504 1503 1503 1503 1502 1500 1500 1499 1498 1498 1498 1497 1497 1496 1495 1494 1493 1491 1490 1488 1488 1486 1484 1483 1482 1481 1479 1477 1475 1475 1474 1474
1473 1475 1477 1478 1480 1482 1484 1486 1487 1489 1491 1492 1492 1493 1494 1495 1496 1496 1497 1497 1498 1499 1499 1499 1499 1499 1500 1500 1501 1501 1501 1501 1501 1501 1500 1499 1498 1497 1496 1496 1496 1496 1495 1494 1493 1492 1491 1490 1489 1488 1486 1486 1484 1482 1480 1480 1479 1477 1474 1473 1472 1472 1472
1473 1475 1477 1479 1480 1481 1483 1485 1486 1488 1489 1489 1490 1491 1492 1493 1494 1493 1494 1495 1496 1496 1496 1495 1495 1496 1497 1498 1498 1499 1499 1499 1499 1498 1498 1497 1496 1495 1494 1494 1494 1493 1493 1492 1491 1490 1489 1488 1487 1486 1485 1484 1482 1479 1478 1477 1477 1476 1474 1472 1471 1470 1470
1473 1475 1476 1478 1479 1480 1482 1484 1485 1486 1487 1487 1488 1489 1490 1491 1491 1491 1491 1492 1492 1492 1492 1492 1492 1493 1495 1496 1496 1496 1497 1497 1497 1496 1496 1496 1494 1493 1491 1491 1491 1491 1490 1490 1489 1488 1487 1486 1485 1484 1483 1482 1480 1478 1477 1477 1476 1474 1473 1471 1470 1469 1468
1473 1474 1475 1477 1478 1480 1482 1483 1484 1485 1485 1486 1487 1487 1488 1488 1488 1488 1489 1489 1489 1489 1489 1489 1490 1491 1492 1493 1493 1494 1494 1494 1494 1494 1494 1494 1493 1491 1490 1489 1489 1489 1489 1488 1487 1486 1485 1484 1483 1482 1481 1480 1478 1477 1477 1476 1475 1472 1471 1470 1468 1467 1466
1473 1474 1475 1476 1478 1479 1481 1482 1483 1483 1484 1484 1485 1485 1486 1486 1486 1486 1486 1486 1487 1487 1486 1487 1488 1489 1490 1491 1491 1492 1492 1491 1492 1492 1492 1491 1490 1489 1489 1487 1486 1486 1486 1485 1484 1483 1483 1482 1482 1481 1480 1478 1477 1476 1475 1474 1473 1471 1469 1468 1467 1465 1464
1473 1475 1476 1477 1477 1479 1480 1481 1482 1482 1482 1483 1483 1483 1483 1483 1484 1485 1484 1485 1485 1485 1485 1486 1487 1487 1489 1489 1489 1490 1490 1490 1490 1490 1489 1488 1487 1486 1485 1484 1483 1483 1482 1482 1481 1480 1480 1480 1479 1478 1478 1477 1475 1474 1473 1472 1470 1469 1468 1466 1464 1464 1463
1474 1475 1475 1476 1477 1478 1478 1480 1480 1480 1481 1481 1481 1482 1482 1482 1482 1483 1483 1483 1483 1483 1484 1484 1484 1485 1487 1488 1488 1488 1488 1488 1488 1487 1486 1485 1484 1484 1482 1481 1480 1480 1479 1478 1477 1477 1477 1477 1476 1476 1475 1474 1473 1472 1471 1470 1468 1467 1466 1464 1463 1462 1461
1473 1474 1474 1476 1476 1477 1478 1478 1479 1479 1480 1480 1480 1480 1480 1480 1480 1481 1481 1481 1481 1481 1482 1482 1482 1483 1485 1486 1486 1486 1486 1486 1485 1484 1483 1482 1482 1482 1481 1479 1478 1477 1476 1475 1475 1475 1475 1474 1474 1473 1473 1472 1471 1470 1469 1468 1467 1465 1464 1462 1461 1460 1459
1471 1472 1474 1474 1475 1476 1477 1477 1478 1478 1478 1478 1479 1479 1479 1479 1479 1479 1479 1479 1479 1480 1480 1480 1481 1481 1482 1483 1483 1483 1483 1483 1482 1481 1481 1480 1479 1479 1479 1478 1475 1474 1473 1474 1473 1473 1473 1472 1471 1471 1470 1470 1469 1468 1468 1467 1465 1464 1463 1461 1460 1459 1457